sat.trackr.live / text

‹ back to catalog

RADUGA-1M 3

NORAD 39375 · 2013-062A

PAYLOAD ACTIVE UNKNOWN

§ Identity

Operator
Country
CIS
Launch date
2013-11-11
Launch site
TYMSC
Launch vehicle
Mass (kg)
RCS (m²)
63.10

Purposes: comms

External: N2YO · Heavens-Above · Gunter

§ Orbital elements

Epoch: 2026-09-20T01:41:31.144704Z

Period
1,436.09 min
Inclination
6.1957°
Eccentricity
0.0002123
Mean motion
1.00272047 rev/d
Perigee alt
35,777.6 km
Apogee alt
35,795.5 km
Semi-major
42,164.7 km
B*
0.0000e+0
RAAN
71.1248°
Arg perigee
305.8992°
Mean anomaly
42.2886°
Rev number
4,705

§ Raw data

RADUGA-1M 31 39375U 13062A   26263.07049936  .00000151  00000+0  00000+0 0  99912 39375   6.1957  71.1248 0002123 305.8992  42.2886  1.00272047 47053

JSON: /api/v1/satellites/39375 · /tle

For live sub-satellite position, see the globe view (requires WebGL).

§ Visibility from observer

Set your observer location to see the next 7 days of passes ≥ 10°. The values pass through the URL so the page stays shareable.

No JS? Fill the form by hand. The geolocation button needs JavaScript.